{"data":{"norad_id":53606,"intl_designator":"2022-104U","name":"STARLINK-4590","alt_names":[],"object_type":"PAYLOAD","status":"ACTIVE","operator":null,"country":"US","launch_date":"2022-08-28","launch_site_code":"AFETR","launch_vehicle":null,"mission":null,"orbit_class":"UNKNOWN","rcs_meters":null,"size_class":null,"mass_kg":null,"dimensions":null,"purposes":["comms"],"wikipedia_slug":null,"has_3d_model":false,"image_url":null,"decayed_at":null,"tle_current":{"epoch":"2026-09-20T17:27:58.584960Z","epoch_age_seconds":58611,"freshness":"FRESH","line1":"1 53606U 22104U   26263.72776140 -.00001076  00000+0 -20719-4 0  9990","line2":"2 53606  53.1605  66.3637 0001097  85.5574 274.5554 15.34381982225245","mean_motion":15.34381982,"eccentricity":0.0001097,"inclination_deg":53.1605,"raan_deg":66.3637,"arg_perigee_deg":85.5574,"mean_anomaly_deg":274.5554,"bstar":-2.0719e-5,"rev_number":22524,"period_min":93.848860120413,"perigee_km":462.00634797508,"apogee_km":463.50724007349,"semimajor_km":6840.8937940243,"source":"CELESTRAK","updated_at":"2026-09-21T09:00:32.938385Z"}}}